EW3190 Weather Reports


Display with metric or nautical units.
time (UTC)temp
F
wind
direction
speed
MPH
gust
MPH
rain 1hr
in
rain 24hr
in
rain mn
in
humidity
%
barometer
mb
20260510043016 52 90 15.0 17.0 0.00 0.08 0.00 96 1010.7
20260510042016 52 90 13.0 15.0 0.00 0.08 0.00 95 1010.7
20260510041016 52 90 14.0 16.0 0.00 0.08 0.00 95 1010.8
20260510040037 52 90 14.0 16.0 0.00 0.08 0.08 95 1010.8
20260510035036 52 90 12.0 13.0 0.00 0.08 0.08 95 1010.7
20260510034016 52 90 13.0 14.0 0.00 0.08 0.08 96 1010.8
20260510033016 52 90 12.0 13.0 0.00 0.08 0.08 95 1010.8
20260510032016 52 90 13.0 14.0 0.00 0.08 0.08 94 1010.9
20260510031056 52 90 12.0 13.0 0.00 0.08 0.08 93 1010.7
20260510030016 53 90 12.0 14.0 0.00 0.08 0.08 93 1010.6
20260510025041 53 90 13.0 15.0 0.00 0.08 0.08 93 1010.7
20260510024016 52 90 13.0 15.0 0.00 0.08 0.08 94 1010.6
20260510023016 52 90 14.0 16.0 0.00 0.08 0.08 95 1010.5
20260510022016 52 90 14.0 17.0 0.00 0.08 0.08 95 1010.5
20260510021016 52 90 14.0 20.0 0.00 0.08 0.08 95 1010.3
20260510020016 52 90 15.0 18.0 0.00 0.08 0.08 96 1010.4
20260510015016 52 90 15.0 18.0 0.00 0.08 0.08 96 1010.0
20260510014026 52 90 14.0 17.0 0.00 0.08 0.08 96 1010.1
20260510013016 52 90 14.0 17.0 0.00 0.08 0.08 96 1010.1
20260510012016 52 90 13.0 15.0 0.00 0.08 0.08 96 1010.1
20260510011015 53 90 12.0 14.0 0.00 0.08 0.08 96 1010.0
20260510010016 53 90 13.0 16.0 0.00 0.08 0.08 96 1009.9
20260510005015 53 90 12.0 14.0 0.00 0.08 0.08 96 1009.9
20260510004036 53 90 13.0 16.0 0.00 0.08 0.08 95 1009.7
20260510003016 53 90 13.0 16.0 0.00 0.08 0.08 95 1009.6
20260510002056 54 90 14.0 17.0 0.00 0.08 0.08 94 1009.5
20260510001046 54 90 13.0 15.0 0.00 0.08 0.08 93 1009.5
20260510000036 55 90 12.0 14.0 0.00 0.08 0.08 91 1009.4
20260509235015 55 90 12.0 13.0 0.00 0.08 0.08 90 1009.4
20260509234055 55 90 12.0 15.0 0.00 0.08 0.08 89 1009.4
20260509233016 56 90 12.0 13.0 0.00 0.08 0.08 89 1009.4
20260509232015 56 90 9.0 11.0 0.00 0.08 0.08 87 1009.3
20260509231104 56 90 7.0 9.0 0.00 0.08 0.08 87 1009.4
20260509230016 56 90 5.0 6.0 0.00 0.08 0.08 86 1009.5
20260509225016 57 113 3.0 4.0 0.00 0.08 0.08 84 1009.5
20260509224016 57 113 1.0 3.0 0.00 0.08 0.08 83 1009.5
20260509223015 57 113 3.0 5.0 0.00 0.08 0.08 82 1009.5
20260509222036 58 158 1.0 2.0 0.00 0.08 0.08 79 1009.4
20260509221041 57 293 2.0 4.0 0.00 0.08 0.08 85 1009.5
20260509220017 56 315 3.0 6.0 0.00 0.08 0.08 87 1009.5
20260509215018 56 315 4.0 9.0 0.00 0.08 0.08 88 1009.7
20260509214037 55 293 6.0 9.0 0.00 0.08 0.08 89 1009.8
20260509213018 55 293 4.0 7.0 0.00 0.08 0.08 88 1009.8
20260509212018 55 293 1.0 2.0 0.00 0.08 0.08 88 1009.7
20260509211017 55 0.0 3.0 0.00 0.08 0.08 90 1009.6
20260509210015 54 293 3.0 5.0 0.00 0.08 0.08 88 1009.7
20260509205037 54 315 5.0 7.0 0.00 0.08 0.08 89 1009.8
20260509204017 54 293 8.0 12.0 0.00 0.08 0.08 88 1010.0
20260509203017 54 315 9.0 15.0 0.00 0.08 0.08 88 1010.1
20260509202017 55 293 7.0 9.0 0.00 0.08 0.08 89 1010.2
20260509201028 55 270 4.0 7.0 0.00 0.08 0.08 88 1010.2
20260509200015 55 293 2.0 5.0 0.00 0.08 0.08 87 1010.1
20260509195022 55 225 1.0 3.0 0.00 0.08 0.08 87 1010.1
20260509194017 55 225 1.0 3.0 0.00 0.08 0.08 87 1010.3
20260509193017 55 248 2.0 5.0 0.00 0.08 0.08 84 1010.4
20260509192018 54 248 3.0 5.0 0.01 0.08 0.08 90 1010.4
20260509191017 52 113 2.0 5.0 0.01 0.08 0.08 95 1010.4
20260509190018 52 113 4.0 6.0 0.02 0.08 0.08 93 1010.4
20260509185015 52 113 2.0 3.0 0.02 0.08 0.08 94 1010.9
20260509184017 52 158 2.0 4.0 0.02 0.08 0.08 92 1011.1
20260509183022 52 180 4.0 7.0 0.02 0.08 0.08 91 1011.3
20260509182017 51 158 2.0 4.0 0.01 0.07 0.07 91 1011.2
20260509181017 51 135 2.0 3.0 0.01 0.07 0.07 92 1011.3
20260509180017 51 225 3.0 5.0 0.00 0.06 0.06 90 1011.4
20260509175017 51 248 2.0 5.0 0.00 0.06 0.06 91 1011.3
20260509174022 51 293 5.0 6.0 0.00 0.06 0.06 92 1011.4
20260509173018 51 248 5.0 7.0 0.01 0.06 0.06 92 1011.4
20260509172057 51 270 5.0 8.0 0.02 0.06 0.06 91 1011.5
20260509171022 51 293 2.0 5.0 0.03 0.06 0.06 93 1011.4
20260509170017 51 293 10.0 13.0 0.04 0.06 0.06 93 1011.1
20260509165037 51 315 12.0 14.0 0.05 0.06 0.06 92 1010.8
20260509164017 51 293 11.0 13.0 0.06 0.06 0.06 92 1010.9
20260509163022 51 293 7.0 9.0 0.05 0.05 0.05 91 1010.9
20260509162017 51 270 7.0 9.0 0.04 0.04 0.04 90 1011.3
20260509161017 52 270 6.0 7.0 0.03 0.03 0.03 86 1011.5
20260509160017 52 225 5.0 10.0 0.02 0.02 0.02 87 1011.7
20260509155017 53 225 6.0 11.0 0.01 0.01 0.01 85 1011.9
20260509154017 53 225 8.0 14.0 0.00 0.00 0.00 83 1012.1
20260509153037 54 225 9.0 13.0 0.00 0.00 0.00 80 1012.0
20260509152017 55 203 8.0 12.0 0.00 0.00 0.00 79 1012.2
20260509151022 55 225 8.0 13.0 0.00 0.00 0.00 79 1012.1
20260509150017 55 180 6.0 14.0 0.00 0.00 0.00 80 1012.1
20260509145057 55 158 7.0 12.0 0.00 0.00 0.00 80 1012.0
20260509144017 55 180 7.0 11.0 0.00 0.00 0.00 81 1011.9
20260509143037 55 158 8.0 13.0 0.00 0.00 0.00 82 1011.8
20260509142017 54 135 6.0 10.0 0.00 0.00 0.00 83 1011.6
20260509141017 54 135 7.0 11.0 0.00 0.00 0.00 82 1011.4
20260509140017 54 135 5.0 9.0 0.00 0.00 0.00 83 1011.3
20260509135017 54 158 7.0 11.0 0.00 0.00 0.00 82 1011.3
20260509134037 54 135 8.0 11.0 0.00 0.00 0.00 82 1011.3
20260509133042 54 158 6.0 9.0 0.00 0.00 0.00 83 1011.3
20260509132017 53 113 6.0 12.0 0.00 0.00 0.00 82 1011.4
20260509131021 0 0.0 0.0 0.00 0.00 0.00
20260509130017 0 0.0 0.0 0.00 0.00 0.00
20260509125613 0 0.0 0.0 0.00 0.00 0.00
20260509124522 0 0.0 0.0 0.00 0.00 0.00
20260509123516 0 0.0 0.0 0.00 0.00 0.00
20260509123014 0 0.0 0.0 0.00 0.00 0.00
20260509122016 0 0.0 0.0 0.00 0.00 0.00
20260509121017 0 0.0 0.0 0.00 0.00 0.00
20260509120614 0 0.0 0.0 0.00 0.00 0.00
20260509115522 0 0.0 0.0 0.00 0.00 0.00
20260509114517 0 0.0 0.0 0.00 0.00 0.00
20260509114129 0 0.0 0.0 0.00 0.00 0.00
20260509113016 0 0.0 0.0 0.00 0.00 0.00
20260509112036 0 0.0 0.0 0.00 0.00 0.00
20260509111611 0 0.0 0.0 0.00 0.00 0.00
20260509110517 0 0.0 0.0 0.00 0.00 0.00
20260509105537 0 0.0 0.0 0.00 0.00 0.00
20260509105111 0 0.0 0.0 0.00 0.00 0.00
20260509104016 0 0.0 0.0 0.00 0.00 0.00
20260509103017 0 0.0 0.0 0.00 0.00 0.00
20260509102652 0 0.0 0.0 0.00 0.00 0.00
20260509101516 0 0.0 0.0 0.00 0.00 0.00
20260509100517 0 0.0 0.0 0.00 0.00 0.00
20260509100133 0 0.0 0.0 0.00 0.00 0.00
20260509095016 0 0.0 0.0 0.00 0.00 0.00
20260509094016 0 0.0 0.0 0.00 0.00 0.00
20260509093633 0 0.0 0.0 0.00 0.00 0.00
20260509092517 0 0.0 0.0 0.00 0.00 0.00
20260509091516 0 0.0 0.0 0.00 0.00 0.00
20260509091052 0 0.0 0.0 0.00 0.00 0.00 80
20260509090539 0 158 7.0 11.0 0.00 0.00 0.00 80
20260509085517 53 158 8.0 12.0 0.00 0.00 0.00 79 1011.2
20260509084536 53 158 10.0 15.0 0.00 0.00 0.00 78 1011.2
20260509083536 53 135 10.0 15.0 0.00 0.00 0.00 78 1011.1
20260509082526 53 135 10.0 15.0 0.00 0.00 0.00 78 1011.5
20260509081516 53 135 8.0 13.0 0.00 0.00 0.00 77 1011.5
20260509080516 53 135 7.0 12.0 0.00 0.00 0.00 77 1011.4
20260509075516 53 135 9.0 14.0 0.00 0.00 0.00 76 1011.4
20260509074516 53 113 8.0 10.0 0.00 0.00 0.00 75 1011.6
20260509073526 54 113 9.0 13.0 0.00 0.00 0.00 74 1011.6
20260509072516 53 113 10.0 13.0 0.00 0.00 0.00 74 1011.6
20260509071516 53 90 10.0 12.0 0.00 0.00 0.00 73 1011.5
20260509070527 53 90 8.0 10.0 0.00 0.00 0.00 73 1011.4
20260509065536 54 90 9.0 12.0 0.00 0.00 0.00 72 1011.5
20260509064516 54 90 11.0 13.0 0.00 0.00 0.00 70 1011.5
20260509063516 54 90 10.0 12.0 0.00 0.00 0.00 69 1011.5
20260509062516 55 90 8.0 12.0 0.00 0.00 0.00 68 1011.6
20260509061516 55 113 8.0 11.0 0.00 0.00 0.00 67 1011.9
20260509060516 55 90 10.0 11.0 0.00 0.00 0.00 64 1012.1
20260509055516 55 90 12.0 13.0 0.00 0.00 0.00 62 1012.1
20260509054516 55 90 14.0 16.0 0.00 0.00 0.00 61 1012.2
20260509053556 55 90 14.0 16.0 0.00 0.00 0.00 62 1012.4
20260509052536 55 90 10.0 11.0 0.00 0.00 0.00 62 1012.4
20260509051516 56 90 9.0 10.0 0.00 0.00 0.00 60 1012.5
20260509050516 56 90 1.0 4.0 0.00 0.00 0.00 60 1012.7
20260509045516 56 0.0 4.0 0.00 0.00 0.00 61 1012.7
20260509044537 56 0.0 1.0 0.00 0.00 0.00 61 1012.5